CFG18M EDDP-EDXW

Flight info

Callsign CFG18M
Flight time 0h 52m
Altitude 38000
Route PENEM Y233 EMBOX L986 POVEL M852 AMLUH L619 ELSOB Y348 OMWEG DCT BADOS DCT OLDIP
Aircraft A320/M-SDE3FGHIRWY/LB1

Departure

Time 2026-04-25 20:15
Airport Leipzig/Halle Airport (EDDP)

Arrival

Time 2026-04-25 21:07
Airport Westerland Sylt Airport (EDXW)
Time Latitude Longitude Altitude Speed Heading
2026-04-25 19:40 51.41894 12.22110 440 ft 0 kts 15°
2026-04-25 20:01 51.41878 12.22103 434 ft 2 kts 19°
2026-04-25 20:01 51.41863 12.22095 443 ft 2 kts 20°
2026-04-25 20:01 51.41848 12.22085 447 ft 2 kts 25°
2026-04-25 20:02 51.41833 12.22073 447 ft 2 kts 32°
2026-04-25 20:02 51.41820 12.22058 447 ft 2 kts 46°
2026-04-25 20:02 51.41810 12.22038 447 ft 2 kts 75°
2026-04-25 20:02 51.41808 12.22012 429 ft 2 kts 102°
2026-04-25 20:03 51.41809 12.22003 429 ft 0 kts 105°
2026-04-25 20:04 51.41804 12.22036 446 ft 8 kts 104°
2026-04-25 20:04 51.41789 12.22126 448 ft 7 kts 105°
2026-04-25 20:05 51.41779 12.22187 450 ft 6 kts 105°
2026-04-25 20:05 51.41764 12.22274 452 ft 9 kts 105°
2026-04-25 20:05 51.41751 12.22351 453 ft 5 kts 105°
2026-04-25 20:05 51.41738 12.22423 456 ft 11 kts 105°
2026-04-25 20:06 51.41721 12.22530 458 ft 8 kts 105°
2026-04-25 20:06 51.41707 12.22609 458 ft 7 kts 105°
2026-04-25 20:06 51.41693 12.22692 463 ft 8 kts 104°
2026-04-25 20:06 51.41679 12.22782 464 ft 9 kts 104°
2026-04-25 20:07 51.41656 12.22900 464 ft 16 kts 108°
2026-04-25 20:07 51.41617 12.23109 464 ft 19 kts 105°
2026-04-25 20:07 51.41600 12.23225 464 ft 16 kts 100°
2026-04-25 20:07 51.41605 12.23453 463 ft 15 kts 86°
2026-04-25 20:08 51.41609 12.23556 465 ft 13 kts 86°
2026-04-25 20:08 51.41615 12.23679 467 ft 9 kts 85°
2026-04-25 20:08 51.41622 12.23827 466 ft 19 kts 85°
2026-04-25 20:08 51.41634 12.24078 473 ft 25 kts 85°
2026-04-25 20:09 51.41646 12.24329 474 ft 17 kts 85°
2026-04-25 20:09 51.41655 12.24515 474 ft 14 kts 85°
2026-04-25 20:09 51.41701 12.24611 474 ft 10 kts 15°
2026-04-25 20:09 51.41794 12.24648 481 ft 28 kts 13°
2026-04-25 20:10 51.42015 12.24732 484 ft 32 kts 14°
2026-04-25 20:10 51.42236 12.24815 481 ft 33 kts 13°
2026-04-25 20:10 51.42385 12.24874 477 ft 18 kts 13°
2026-04-25 20:10 51.42525 12.24927 470 ft 24 kts 13°
2026-04-25 20:11 51.42689 12.24989 461 ft 23 kts 13°
2026-04-25 20:11 51.42837 12.25045 454 ft 18 kts 13°
2026-04-25 20:11 51.42955 12.25092 449 ft 13 kts 18°
2026-04-25 20:11 51.42984 12.25191 451 ft 10 kts 90°
2026-04-25 20:12 51.42989 12.25318 452 ft 11 kts 85°
2026-04-25 20:12 51.42997 12.25492 454 ft 22 kts 85°
2026-04-25 20:12 51.43005 12.25679 452 ft 13 kts 85°
2026-04-25 20:12 51.43013 12.25763 452 ft 10 kts 70°
2026-04-25 20:13 51.43100 12.25800 452 ft 17 kts 347°
2026-04-25 20:13 51.43185 12.25688 455 ft 16 kts 298°
2026-04-25 20:13 51.43235 12.25525 456 ft 17 kts 296°
2026-04-25 20:13 51.43290 12.25359 459 ft 17 kts 296°
2026-04-25 20:14 51.43291 12.25151 455 ft 22 kts 266°
2026-04-25 20:14 51.43265 12.24558 448 ft 91 kts 266°
2026-04-25 20:14 51.43205 12.23196 465 ft 149 kts 268°
2026-04-25 20:14 51.43135 12.21505 1056 ft 153 kts 269°
2026-04-25 20:15 51.43214 12.19833 1864 ft 147 kts 301°
2026-04-25 20:15 51.43905 12.18721 2661 ft 148 kts 320°
2026-04-25 20:15 51.44797 12.17678 3098 ft 170 kts 321°
2026-04-25 20:15 51.45835 12.16505 3493 ft 195 kts 321°
2026-04-25 20:16 51.46981 12.15213 4227 ft 206 kts 322°
2026-04-25 20:16 51.48183 12.13862 5247 ft 208 kts 322°
2026-04-25 20:16 51.49345 12.12554 6184 ft 212 kts 322°
2026-04-25 20:16 51.50564 12.11183 7104 ft 215 kts 322°
2026-04-25 20:17 51.51800 12.09790 8027 ft 218 kts 322°
2026-04-25 20:17 51.53155 12.08611 8925 ft 228 kts 336°
2026-04-25 20:17 51.54797 12.08203 9559 ft 254 kts 354°
2026-04-25 20:17 51.56609 12.08279 10261 ft 266 kts 354°
2026-04-25 20:18 51.58538 12.08355 10620 ft 289 kts 354°
2026-04-25 20:18 51.60608 12.08434 11185 ft 303 kts 355°
2026-04-25 20:18 51.62732 12.08519 11830 ft 308 kts 355°
2026-04-25 20:18 51.64887 12.08604 12020 ft 309 kts 355°
2026-04-25 20:19 51.67038 12.08689 12468 ft 311 kts 354°
2026-04-25 20:19 51.69167 12.08344 13368 ft 304 kts 339°
2026-04-25 20:19 51.71043 12.06878 14182 ft 301 kts 321°
2026-04-25 20:19 51.72492 12.04454 14918 ft 302 kts 308°
2026-04-25 20:20 51.73784 12.01777 15674 ft 304 kts 308°
2026-04-25 20:20 51.75085 11.99070 16418 ft 307 kts 308°
2026-04-25 20:20 51.76402 11.96331 17154 ft 310 kts 308°
2026-04-25 20:20 51.77727 11.93579 17879 ft 313 kts 308°
2026-04-25 20:21 51.79071 11.90792 18573 ft 316 kts 308°
2026-04-25 20:21 51.80410 11.88017 19190 ft 319 kts 308°
2026-04-25 20:21 51.81833 11.85067 19835 ft 322 kts 308°
2026-04-25 20:21 51.83215 11.82202 20472 ft 325 kts 308°
2026-04-25 20:22 51.84610 11.79311 21087 ft 328 kts 308°
2026-04-25 20:22 51.85545 11.77369 21501 ft 330 kts 308°
2026-04-25 20:22 51.87444 11.73421 22256 ft 335 kts 309°
2026-04-25 20:22 51.88883 11.70430 22833 ft 339 kts 309°
2026-04-25 20:23 51.90338 11.67396 23431 ft 343 kts 309°
2026-04-25 20:23 51.91808 11.64322 23957 ft 346 kts 309°
2026-04-25 20:23 51.93288 11.61223 24447 ft 349 kts 309°
2026-04-25 20:23 51.94776 11.58101 24935 ft 351 kts 308°
2026-04-25 20:24 51.96275 11.54949 25467 ft 353 kts 309°
2026-04-25 20:24 51.97773 11.51800 25987 ft 353 kts 309°
2026-04-25 20:24 51.99261 11.48672 26454 ft 355 kts 308°
2026-04-25 20:24 52.00773 11.45485 26894 ft 358 kts 308°
2026-04-25 20:25 52.02297 11.42267 27321 ft 360 kts 308°
2026-04-25 20:25 52.03824 11.39041 27517 ft 361 kts 308°
2026-04-25 20:25 52.05207 11.35630 27725 ft 363 kts 300°
2026-04-25 20:25 52.06193 11.31635 27923 ft 370 kts 289°
2026-04-25 20:26 52.06752 11.27696 28224 ft 376 kts 286°
2026-04-25 20:26 52.07530 11.23659 28607 ft 374 kts 298°
2026-04-25 20:26 52.08993 11.20187 29003 ft 373 kts 314°
2026-04-25 20:26 52.11054 11.17616 29394 ft 377 kts 328°
2026-04-25 20:27 52.13345 11.15494 29774 ft 380 kts 328°
2026-04-25 20:27 52.15660 11.13367 30052 ft 383 kts 328°
2026-04-25 20:27 52.20291 11.09117 30103 ft 382 kts 328°
2026-04-25 20:28 52.24932 11.04830 30389 ft 385 kts 328°
2026-04-25 20:28 52.27253 11.02675 30803 ft 384 kts 328°
2026-04-25 20:28 52.29570 11.00518 31163 ft 384 kts 328°
2026-04-25 20:29 52.31894 10.98352 31473 ft 386 kts 328°
2026-04-25 20:29 52.34234 10.96167 31769 ft 387 kts 328°
2026-04-25 20:29 52.36577 10.93976 32026 ft 389 kts 328°
2026-04-25 20:29 52.38932 10.91775 32343 ft 390 kts 329°
2026-04-25 20:30 52.41285 10.89576 32717 ft 390 kts 329°
2026-04-25 20:30 52.43635 10.87377 33116 ft 389 kts 329°
2026-04-25 20:30 52.45980 10.85179 33520 ft 388 kts 329°
2026-04-25 20:30 52.48320 10.82984 33921 ft 386 kts 329°
2026-04-25 20:31 52.50651 10.80801 34297 ft 386 kts 329°
2026-04-25 20:31 52.52974 10.78620 34702 ft 383 kts 329°
2026-04-25 20:31 52.55283 10.76447 35109 ft 381 kts 329°
2026-04-25 20:31 52.57577 10.74286 35410 ft 380 kts 329°
2026-04-25 20:32 52.59871 10.72120 35685 ft 380 kts 329°
2026-04-25 20:32 52.61396 10.70677 35859 ft 381 kts 329°
2026-04-25 20:32 52.64462 10.67773 36197 ft 381 kts 329°
2026-04-25 20:32 52.66764 10.65586 36451 ft 382 kts 328°
2026-04-25 20:33 52.68289 10.64134 36608 ft 382 kts 328°
2026-04-25 20:33 52.71370 10.61201 36927 ft 382 kts 328°
2026-04-25 20:33 52.73670 10.59009 37256 ft 380 kts 329°
2026-04-25 20:33 52.74438 10.58276 37393 ft 379 kts 329°
2026-04-25 20:34 52.78208 10.54683 38034 ft 374 kts 328°
2026-04-25 20:34 52.80474 10.52522 38116 ft 378 kts 329°
2026-04-25 20:34 52.85056 10.48152 38114 ft 381 kts 329°
2026-04-25 20:35 52.89653 10.43735 38111 ft 382 kts 329°
2026-04-25 20:35 52.94245 10.39321 38112 ft 382 kts 329°
2026-04-25 20:36 52.98838 10.34895 38117 ft 382 kts 329°
2026-04-25 20:36 53.03407 10.30484 38135 ft 382 kts 329°
2026-04-25 20:37 53.08005 10.26042 38138 ft 382 kts 329°
2026-04-25 20:37 53.12594 10.21586 38098 ft 382 kts 329°
2026-04-25 20:38 53.17313 10.16981 38097 ft 384 kts 329°
2026-04-25 20:38 53.21815 10.12592 38099 ft 385 kts 329°
2026-04-25 20:39 53.26445 10.08067 38105 ft 386 kts 329°
2026-04-25 20:39 53.29543 10.05023 38108 ft 386 kts 329°
2026-04-25 20:40 53.35705 9.98962 38138 ft 386 kts 329°
2026-04-25 20:40 53.40325 9.94401 38139 ft 385 kts 329°
2026-04-25 20:41 53.42627 9.92132 37903 ft 384 kts 329°
2026-04-25 20:41 53.44939 9.89854 37218 ft 385 kts 329°
2026-04-25 20:41 53.47274 9.87546 36531 ft 384 kts 329°
2026-04-25 20:41 53.49539 9.85303 35909 ft 383 kts 329°
2026-04-25 20:42 53.51855 9.83004 35274 ft 381 kts 329°
2026-04-25 20:42 53.54130 9.80740 34662 ft 379 kts 329°
2026-04-25 20:42 53.56364 9.78511 34058 ft 377 kts 329°
2026-04-25 20:42 53.58636 9.76240 33347 ft 373 kts 328°
2026-04-25 20:43 53.60845 9.74036 32742 ft 365 kts 329°
2026-04-25 20:43 53.62968 9.71917 32086 ft 354 kts 328°
2026-04-25 20:43 53.65060 9.69827 31448 ft 346 kts 328°
2026-04-25 20:43 53.67144 9.67742 30814 ft 341 kts 328°
2026-04-25 20:44 53.69169 9.65716 30204 ft 337 kts 328°
2026-04-25 20:44 53.71181 9.63702 29516 ft 337 kts 328°
2026-04-25 20:44 53.73165 9.61711 28811 ft 333 kts 328°
2026-04-25 20:44 53.75132 9.59734 28124 ft 326 kts 328°
2026-04-25 20:45 53.77061 9.57791 27463 ft 320 kts 328°
2026-04-25 20:45 53.78967 9.55867 26823 ft 317 kts 328°
2026-04-25 20:45 53.80852 9.53964 26193 ft 314 kts 328°
2026-04-25 20:45 53.82721 9.52077 25573 ft 312 kts 328°
2026-04-25 20:46 53.83973 9.50811 25169 ft 310 kts 328°
2026-04-25 20:46 53.85796 9.48964 24580 ft 307 kts 327°
2026-04-25 20:46 53.87619 9.47114 24029 ft 303 kts 328°
2026-04-25 20:46 53.89413 9.45293 23367 ft 298 kts 328°
2026-04-25 20:47 53.91184 9.43494 22688 ft 294 kts 328°
2026-04-25 20:47 53.92930 9.41721 22024 ft 291 kts 328°
2026-04-25 20:47 53.94661 9.39961 21375 ft 288 kts 328°
2026-04-25 20:47 53.96373 9.38220 20742 ft 286 kts 328°
2026-04-25 20:48 53.98073 9.36492 20119 ft 283 kts 328°
2026-04-25 20:48 53.99758 9.34775 19508 ft 281 kts 328°
2026-04-25 20:48 54.01430 9.33069 18910 ft 279 kts 328°
2026-04-25 20:48 54.03087 9.31375 18315 ft 277 kts 328°
2026-04-25 20:49 54.04733 9.29690 17647 ft 276 kts 328°
2026-04-25 20:49 54.06372 9.28012 16994 ft 274 kts 328°
2026-04-25 20:49 54.08000 9.26343 16349 ft 273 kts 328°
2026-04-25 20:49 54.09624 9.24678 15712 ft 271 kts 328°
2026-04-25 20:50 54.11236 9.23027 15093 ft 268 kts 329°
2026-04-25 20:50 54.12825 9.21398 14537 ft 266 kts 329°
2026-04-25 20:50 54.14403 9.19781 14129 ft 265 kts 329°
2026-04-25 20:50 54.15980 9.18163 13677 ft 265 kts 329°
2026-04-25 20:51 54.17555 9.16542 13173 ft 264 kts 329°
2026-04-25 20:51 54.19127 9.14919 12675 ft 264 kts 329°
2026-04-25 20:51 54.20673 9.13320 12189 ft 254 kts 328°
2026-04-25 20:51 54.22155 9.11787 11704 ft 246 kts 328°
2026-04-25 20:52 54.23608 9.10285 11233 ft 243 kts 328°
2026-04-25 20:52 54.24565 9.09294 10916 ft 242 kts 328°
2026-04-25 20:52 54.26491 9.07300 10298 ft 242 kts 328°
2026-04-25 20:52 54.27924 9.05815 9787 ft 239 kts 328°
2026-04-25 20:53 54.29338 9.04348 9280 ft 237 kts 328°
2026-04-25 20:53 54.30750 9.02880 8778 ft 237 kts 328°
2026-04-25 20:53 54.32155 9.01421 8285 ft 236 kts 328°
2026-04-25 20:53 54.33542 8.99980 7928 ft 236 kts 328°
2026-04-25 20:54 54.34962 8.98501 7622 ft 235 kts 328°
2026-04-25 20:54 54.36359 8.97045 7330 ft 235 kts 329°
2026-04-25 20:54 54.37757 8.95587 7031 ft 235 kts 329°
2026-04-25 20:54 54.39153 8.94130 6727 ft 235 kts 329°
2026-04-25 20:55 54.40549 8.92672 6446 ft 235 kts 329°
2026-04-25 20:55 54.41944 8.91214 6155 ft 235 kts 329°
2026-04-25 20:55 54.43339 8.89753 5876 ft 236 kts 330°
2026-04-25 20:55 54.44749 8.88275 5586 ft 237 kts 330°
2026-04-25 20:56 54.46157 8.86800 5301 ft 238 kts 330°
2026-04-25 20:56 54.47569 8.85324 5018 ft 238 kts 331°
2026-04-25 20:56 54.48985 8.83841 4726 ft 238 kts 331°
2026-04-25 20:56 54.50393 8.82361 4433 ft 237 kts 331°
2026-04-25 20:57 54.51795 8.80883 4149 ft 236 kts 331°
2026-04-25 20:57 54.53198 8.79404 3861 ft 236 kts 331°
2026-04-25 20:57 54.54597 8.77932 3593 ft 235 kts 331°
2026-04-25 20:57 54.55974 8.76483 3463 ft 225 kts 331°
2026-04-25 20:58 54.57270 8.75112 3330 ft 213 kts 331°
2026-04-25 20:58 54.58507 8.73801 3198 ft 206 kts 331°
2026-04-25 20:58 54.59728 8.72541 3082 ft 203 kts 333°
2026-04-25 20:58 54.60935 8.71276 3017 ft 203 kts 330°
2026-04-25 20:59 54.62108 8.69910 3018 ft 204 kts 329°
2026-04-25 20:59 54.63255 8.68525 3018 ft 204 kts 328°
2026-04-25 20:59 54.64428 8.67098 3018 ft 204 kts 328°
2026-04-25 20:59 54.65591 8.65680 3015 ft 204 kts 328°
2026-04-25 21:00 54.66748 8.64269 3014 ft 204 kts 328°
2026-04-25 21:00 54.67125 8.63809 3020 ft 204 kts 328°
2026-04-25 21:00 54.70205 8.60046 3028 ft 201 kts 328°
2026-04-25 21:01 54.71305 8.58696 3029 ft 187 kts 329°
2026-04-25 21:01 54.72330 8.57439 3023 ft 174 kts 329°
2026-04-25 21:01 54.73293 8.56262 3024 ft 169 kts 329°
2026-04-25 21:01 54.74249 8.55092 3026 ft 169 kts 329°
2026-04-25 21:02 54.75257 8.53861 3032 ft 181 kts 329°
2026-04-25 21:02 54.76291 8.52590 3027 ft 183 kts 329°
2026-04-25 21:02 54.77336 8.51306 3024 ft 184 kts 329°
2026-04-25 21:02 54.78382 8.50020 2949 ft 183 kts 329°
2026-04-25 21:03 54.79415 8.48749 2753 ft 182 kts 329°
2026-04-25 21:03 54.80449 8.47478 2525 ft 182 kts 328°
2026-04-25 21:03 54.81460 8.46236 2257 ft 173 kts 328°
2026-04-25 21:03 54.82411 8.45069 2069 ft 159 kts 328°
2026-04-25 21:04 54.83253 8.44024 1937 ft 142 kts 327°
2026-04-25 21:04 54.83995 8.43100 1697 ft 127 kts 327°
2026-04-25 21:04 54.84686 8.42255 1467 ft 119 kts 328°
2026-04-25 21:04 54.85357 8.41426 1262 ft 115 kts 326°
2026-04-25 21:05 54.86011 8.40601 1126 ft 120 kts 326°
2026-04-25 21:05 54.86720 8.39724 1014 ft 122 kts 327°
2026-04-25 21:05 54.87396 8.38940 860 ft 119 kts 326°
2026-04-25 21:05 54.88066 8.38075 683 ft 120 kts 324°
2026-04-25 21:06 54.88756 8.37196 494 ft 125 kts 327°
2026-04-25 21:06 54.89483 8.36311 312 ft 123 kts 327°
2026-04-25 21:06 54.90154 8.35494 125 ft 125 kts 326°
2026-04-25 21:06 54.90623 8.34918 74 ft 115 kts 326°
2026-04-25 21:07 54.91223 8.34183 57 ft 29 kts 324°
2026-04-25 21:07 54.91316 8.34046 54 ft 11 kts 288°
2026-04-25 21:07 54.91278 8.33919 54 ft 12 kts 238°
2026-04-25 21:07 54.91234 8.33786 55 ft 13 kts 240°
2026-04-25 21:08 54.91191 8.33653 56 ft 12 kts 239°
2026-04-25 21:08 54.91142 8.33512 55 ft 16 kts 239°
2026-04-25 21:08 54.91083 8.33335 52 ft 16 kts 240°
2026-04-25 21:08 54.91047 8.33206 50 ft 7 kts 270°
2026-04-25 21:09 54.91150 8.33180 58 ft 9 kts
2026-04-25 21:09 54.91223 8.33180 58 ft 11 kts 360°
2026-04-25 21:09 54.91286 8.33196 56 ft 10 kts 27°
2026-04-25 21:10 54.91349 8.33251 56 ft 9 kts
2026-04-25 21:10 54.91386 8.33203 58 ft 7 kts 277°
2026-04-25 21:10 54.91386 8.33142 58 ft 2 kts 271°
2026-04-25 21:10 54.91386 8.33124 58 ft 0 kts 271°